ATLAS 5 CENTAUR DEB, 44673

Orbit data source: Space-Track

ATLAS 5 CENTAUR DEB, 44673 is space debris in HEO originally from a launch on Wed, 17 Oct 2018 UTC launched from the Air Force Eastern Test Range (AFETR). Debris objects in space refer to the collection of defunct objects orbiting the Earth. Examples of debris include non-operational satellites, rocket bodies, and fragments generated from explosions, collisions, or faulty payload assembly.

Loading next visibility...
Identifier
44673, 2018-079AK
Orbit
HEO
Country
Flag of USUS
Related business
Flag of USUnited Launch Alliance/Lockheed Martin (US)
Manufacturer
ULA Decatur
Mission
Spacecraft
Bus & Motor
Unknown
Mass
Unknown
Launch date (UTC)
2018-10-17 (8 years ago)
Launch vehicle
Unknown
Launch site
Air Force Eastern Test Range (AFETR)
Object type
Payload
Rocket body
Debris
Shape & HBR
Unknown shape, 1.1 m
Radar Cross Section
Medium (>0.1 m² and <1 m²)

Expand to show TLE details & history
Last TLE update: 2 days ago

TLE from 2 days ago
0 ATLAS 5 CENTAUR DEB
1 44673U 18079AK  26191.03563060 -.00000100  00000-0  00000-0 0  9993
2 44673  13.3935  41.6560 4708083 299.0346  21.8768  1.77545872 50277
Epoch: 2026-07-10T00:51Z
TLE epoch observation values (Epoch: 2026-07-10T00:51:18.483Z)
Latitude
0.00005°
Longitude
100.85726°
Altitude
11,901.519 km
Speed
5.457 km/s
True Right ascension
02h 46m 36s
True Declination
0° 00' 00"
Sunlit
Object was in daylight at epoch
Visualization orbit readout
Latitude
Unknown
Longitude
Unknown
Altitude
Unknown
Speed
Unknown
Apparent Right ascension
Unknown
Apparent Declination
Unknown
Sunlit
N/A
Visualization observer readout
Local Sidereal Time
03:14:10
Azimuth
Unknown
Elevation
Unknown
Doppler factor
Unknown
Orbital elements
Apogee altitude
35,997.41 km
Perigee altitude
8,868.437 km
Semi-major axis
28,811.061 km
Eccentricity
0.47081
Inclination
13.3935°
RAAN
41.656°
Arg. of periapsis
299.0346°
True anomaly
60.78888°
Mean anomaly
21.8768°
Eccentric anomaly
38.76784°
Mean motion
0.44382 °/min
Orbital period
811.14 mins
BSTAR
0
Loading maneuver chart data...
Computing Atmospheric mass density...

Documentation

Showing up to 5 results
|